Dewpoint
31 28 27 26 26 25 25 24 22 22 22 21 23 23 20 20 20 20 20 20 18 18 17 16 16 15 15 16 16 16 16 17 16 17 17 18 19 20 20 22 24 25 27 34 31 31 32 33 32 33 34 33 33 32 33 34 35 34 34 37 40 42 42 44 47 50 52 52 52 53 53 52 52 52 52 52 52 52 51 52 52 51 50 51 50 49
27 27 28 26 25 24 23 21 21 21 21 21 22 23 21 24 20 21 20 21 18 18 17 16 15 17 16 16 16 17 17 16 17 17 18 17 18 20 22 23 26 27 31 31 30 29 31 32 34 33 33 34 32 32 33 35 34 34 35 36 37 40 40 41 44 48 50 50 50 50 51 51 51 51 51 51 52 52 52 51 50 50 49 49 48 47
27 25 25 25 25 25 23 23 22 21 22 23 22 23 23 22 24 22 21 19 18 18 17 16 16 17 17 17 18 17 17 18 18 19 19 20 23 23 25 26 27 29 29 29 28 30 29 32 32 32 32 32 32 34 34 35 34 35 35 36 36 38 40 40 40 44 47 48 50 49 49 50 50 50 50 50 50 50 50 49 48 48 48 48 46 46
28 28 25 25 25 23 23 23 22 23 24 23 23 23 22 25 23 21 20 18 18 18 18 18 17 18 18 19 18 19 16 19 22 22 23 24 24 26 25 26 26 28 30 29 29 29 29 29 29 31 31 31 33 32 33 33 33 34 35 36 36 37 38 39 40 40 44 46 48 50 49 48 48 47 47 48 47 47 47 47 46 47 47 47 46 45
26 27 25 24 25 25 24 24 24 22 21 27 27 25 23 24 21 20 19 19 19 19 21 18 19 18 20 16 14 15 18 20 22 21 21 26 29 29 30 30 30 28 29 29 29 29 29 29 29 30 31 31 31 32 33 33 33 34 35 36 36 37 37 38 38 40 41 45 46 47 45 45 45 45 43 43 43 44 44 45 45 45 46 46 46 45
25 26 28 25 28 25 26 24 26 28 24 24 27 26 24 23 21 20 21 20 20 20 20 20 19 20 18 16 16 16 18 19 18 19 19 22 26 26 26 28 30 32 31 29 29 29 29 29 29 30 31 31 31 32 33 33 33 33 33 34 35 35 37 37 38 39 39 40 40 41 42 41 42 41 42 42 41 42 43 43 44 44 44 44 44 44
26 27 30 29 29 31 29 26 28 26 24 25 21 26 23 20 22 23 23 23 19 19 20 20 19 19 21 21 21 21 20 18 18 19 20 23 23 26 28 29 28 29 30 30 29 28 28 28 28 28 29 31 31 32 33 33 32 31 32 33 34 35 35 38 38 39 37 39 39 39 40 40 39 39 40 40 40 41 41 41 41 42 42 42 43 43
27 25 28 30 27 30 31 25 27 26 25 21 32 29 26 22 24 26 24 24 22 25 25 22 21 19 20 20 21 20 18 18 17 18 22 23 23 26 27 28 29 29 29 30 28 28 28 28 27 26 27 28 30 32 33 33 32 31 30 31 32 33 34 35 36 37 38 36 38 39 40 39 38 38 38 39 37 38 37 38 39 40 39 40 41 41
25 30 30 29 29 28 26 26 32 28 24 24 29 28 25 22 24 27 25 24 24 22 23 22 26 20 20 20 20 18 18 17 17 18 22 23 25 26 27 28 29 29 29 28 28 27 27 28 27 26 26 28 29 30 32 32 32 32 31 31 31 31 32 34 35 36 37 37 36 37 37 37 38 37 37 36 36 35 36 36 37 37 37 38 39 40
24 29 29 28 28 24 26 26 30 28 23 34 30 29 28 28 28 26 22 23 22 20 21 22 24 19 19 21 19 19 18 16 17 19 22 24 26 28 28 29 29 29 30 29 27 27 27 27 27 28 27 27 29 30 31 31 31 31 31 31 30 31 31 32 33 34 36 37 36 36 37 38 38 37 36 37 36 36 36 36 36 36 36 35 36 37
25 26 29 25 27 25 23 27 33 32 29 30 29 28 26 29 27 25 24 21 21 19 22 24 23 21 19 21 18 21 21 16 17 21 23 26 27 28 29 28 30 28 29 28 28 27 27 27 27 27 27 27 28 29 30 31 30 29 30 30 30 30 31 31 31 32 33 34 35 36 37 37 37 37 37 37 37 36 36 35 35 35 36 35 34 35
25 25 27 27 25 25 22 30 31 32 32 30 26 24 24 26 24 22 22 24 19 19 23 22 24 22 16 16 20 17 16 16 17 18 23 25 27 29 28 28 29 28 28 28 28 27 27 27 27 27 27 27 27 27 28 29 30 29 29 28 28 29 30 30 31 31 32 32 33 33 34 35 35 35 36 35 35 35 35 35 35 34 34 34 35 34
30 30 28 31 29 23 29 24 27 30 29 26 23 23 23 22 22 20 20 19 19 19 21 20 23 20 18 17 15 15 16 16 20 20 23 26 27 28 28 28 29 30 28 27 27 28 28 27 27 26 27 27 27 27 27 27 29 28 27 27 27 28 29 29 30 30 30 31 31 32 32 33 33 34 35 34 34 35 34 34 34 34 33 33 34 33
26 36 31 31 29 26 27 23 25 25 25 23 22 22 21 20 20 20 20 21 20 25 20 19 24 19 18 16 17 16 18 22 24 27 28 28 28 28 28 28 27 28 28 27 27 27 27 26 27 26 26 26 26 26 27 27 27 27 26 26 27 27 28 28 29 29 30 30 30 31 31 32 32 32 32 32 32 32 32 34 33 33 33 33 33 33
21 21 29 31 27 27 25 24 27 28 25 23 27 24 23 23 22 20 20 18 20 20 19 24 21 20 17 15 18 18 22 24 26 29 30 30 29 28 27 26 25 26 26 27 26 26 25 26 26 26 26 26 25 25 26 25 25 26 26 26 26 26 27 28 28 28 29 29 30 30 30 30 30 31 32 31 32 31 32 32 33 32 32 32 32 32
25 25 30 32 33 26 28 28 29 30 28 27 28 28 23 24 24 21 21 20 21 20 21 22 19 19 17 21 22 23 24 25 26 26 27 26 26 27 25 26 25 24 25 26 26 25 25 25 25 26 25 25 25 25 26 26 26 26 25 24 25 25 26 27 27 28 28 28 28 29 29 30 30 30 30 31 32 31 32 32 32 32 32 32 32 32
26 24 33 33 26 25 28 30 27 29 23 26 25 22 24 29 24 22 25 26 26 22 19 22 18 20 19 18 20 23 23 24 24 24 24 24 25 25 25 25 24 24 24 24 25 24 24 24 25 25 25 25 24 25 25 25 25 24 24 24 23 23 24 25 26 27 27 28 27 27 27 28 29 30 30 29 30 30 31 32 32 31 32 32 32 33
27 27 33 32 30 25 28 28 28 29 31 26 23 26 30 30 29 24 18 20 18 16 18 21 18 15 14 14 23 22 22 22 23 23 23 24 24 23 24 24 23 23 22 22 22 23 23 23 23 24 25 24 24 25 25 25 25 24 24 23 23 23 24 24 24 24 26 26 27 27 27 27 27 27 28 29 29 29 29 30 30 30 32 31 32 32
32 26 27 31 33 30 28 27 26 28 30 27 27 32 25 21 22 22 21 18 18 17 16 15 15 15 16 16 16 21 21 22 22 23 22 21 22 23 22 22 22 22 22 22 21 22 22 22 22 23 23 24 24 24 25 25 24 23 22 22 22 23 23 24 25 25 25 25 26 27 25 26 26 26 26 27 28 28 28 28 28 29 29 30 31 30
32 26 26 35 30 31 28 30 24 26 30 31 28 25 30 25 24 22 21 24 25 20 19 19 18 16 22 17 16 17 22 23 23 22 21 21 21 21 22 22 22 21 21 21 21 22 22 23 23 23 24 24 25 25 25 24 23 21 21 21 21 21 21 22 23 24 24 25 24 24 22 24 24 24 23 24 25 25 27 27 28 28 28 28 28 30
27 29 24 27 31 29 24 26 26 25 23 22 23 21 24 27 27 26 27 23 19 17 16 17 17 19 18 23 24 23 22 23 23 24 23 22 21 21 21 22 21 19 20 19 20 19 21 21 22 23 24 25 25 24 24 25 24 23 21 20 20 20 21 21 22 22 22 24 23 22 20 21 22 22 23 23 24 23 24 25 26 27 28 28 28 28
28 28 26 26 26 26 26 27 25 27 24 24 26 22 23 22 22 21 21 25 25 22 20 19 19 23 23 26 25 25 26 26 26 25 23 21 21 21 22 19 20 19 17 17 18 18 21 21 22 23 24 25 25 24 22 23 22 22 20 18 18 20 21 22 22 22 22 23 25 23 20 19 19 21 22 22 23 23 25 25 25 27 26 27 28 28
34 31 29 28 27 26 27 26 28 28 30 29 27 25 25 23 26 26 22 22 23 23 26 25 25 24 27 27 26 26 25 25 24 24 22 21 21 20 21 20 20 19 18 19 19 20 20 21 22 23 23 23 22 22 21 20 20 20 19 18 17 17 18 19 19 20 19 20 20 21 22 21 19 18 17 18 19 19 23 24 25 25 26 26 26 26
35 31 28 26 27 28 28 30 30 30 31 31 31 30 29 26 27 24 24 26 26 25 25 24 22 27 28 28 26 26 25 24 23 23 22 20 20 20 20 19 19 18 18 17 18 18 18 19 20 20 21 21 20 19 19 18 16 17 17 16 16 15 16 19 18 19 17 17 15 15 11 13 18 17 16 16 18 19 21 23 24 26 26 26 25 25
29 28 31 28 25 23 24 26 28 32 32 29 27 27 30 30 30 31 32 30 24 26 26 23 19 21 31 27 26 25 25 24 23 23 23 23 21 20 18 18 18 16 16 14 14 13 14 15 15 16 19 20 18 17 18 17 17 16 17 15 16 15 17 18 17 18 18 16 15 15 15 13 11 12 14 16 18 20 21 22 22 24 25 24 25 25
32 30 29 25 22 19 17 17 19 23 23 31 32 29 30 31 30 28 24 24 21 24 25 24 22 22 28 28 26 25 25 25 24 24 25 24 24 20 19 19 17 16 14 12 12 15 14 15 14 13 15 16 16 17 18 18 18 16 16 15 15 13 16 17 15 14 14 14 14 15 14 16 15 15 12 12 14 17 21 23 23 22 23 22 24 24
29 32 29 27 24 23 24 25 27 26 22 21 24 28 28 30 31 31 29 26 22 23 23 25 26 25 26 27 27 28 28 26 26 25 24 23 23 23 22 21 20 17 14 11 11 16 14 14 12 11 15 14 14 15 14 14 16 14 16 15 17 16 15 16 15 15 13 12 10 13 13 14 16 16 16 16 15 16 19 22 24 24 23 23 23 23
28 25 25 28 27 26 24 24 24 24 20 19 19 19 22 24 28 29 25 21 23 23 20 23 24 25 26 26 27 25 26 26 26 24 23 23 23 24 24 22 23 17 16 15 15 16 14 13 14 14 12 14 13 15 13 13 14 14 15 14 15 15 15 18 13 14 13 13 12 12 13 15 16 17 18 17 16 17 19 21 22 24 24 25 23 23
25 21 23 22 21 21 20 18 18 19 21 21 20 21 21 22 24 24 25 24 25 23 20 22 22 24 22 21 22 21 22 20 24 24 25 24 23 23 22 19 17 16 15 14 13 14 13 15 15 14 15 14 15 15 15 15 14 14 15 15 14 15 15 14 12 11 11 11 12 12 13 15 16 18 17 17 17 17 17 20 22 24 24 23 23 24
28 23 25 24 24 24 23 23 24 22 21 21 21 20 20 20 21 22 21 22 22 22 22 21 21 20 20 20 18 19 24 26 26 25 24 23 23 23 21 18 16 13 11 10 11 12 13 13 13 14 15 15 14 15 16 16 16 16 17 16 15 15 16 15 12 11 11 11 12 12 12 13 15 16 16 17 16 16 18 19 22 24 25 25 23 21
28 20 23 27 24 23 22 21 21 22 23 23 24 24 22 21 21 21 21 21 22 22 21 21 21 22 21 22 24 25 24 25 23 23 22 22 22 22 20 19 16 12 10 10 10 10 11 12 13 14 16 16 17 16 17 18 18 18 17 17 16 15 15 14 11 12 11 12 13 13 13 13 14 16 17 17 16 21 19 18 20 25 27 27 25 24
30 24 25 25 21 20 23 23 23 24 23 22 22 24 23 23 21 21 20 22 21 20 19 19 19 18 19 24 22 22 21 21 21 19 18 17 17 17 17 17 17 16 12 10 9 10 11 12 12 13 13 14 15 16 17 18 18 19 18 17 17 16 16 14 13 12 12 12 13 14 14 14 16 17 19 20 21 21 20 20 22 25 27 27 26 24
27 26 24 23 21 20 23 24 22 21 20 18 19 21 22 22 21 22 22 22 20 19 19 17 17 23 23 23 22 22 20 18 15 15 15 13 12 12 11 12 13 16 15 12 10 11 11 12 13 14 15 16 17 18 18 18 18 18 18 18 18 16 15 13 12 12 14 13 13 13 14 14 18 20 21 21 20 20 20 20 20 22 24 25 24 24
27 25 22 22 19 19 21 22 22 18 13 13 21 20 19 18 18 18 17 16 14 18 16 21 19 23 23 18 16 18 18 16 13 13 12 12 10 9 8 8 10 13 15 15 13 12 12 13 14 14 15 16 18 18 20 20 20 19 20 18 16 15 15 14 14 14 14 15 15 15 14 15 19 19 20 20 20 20 19 18 18 18 19 22 23 23
23 23 21 22 18 16 17 17 13 10 11 22 20 19 16 14 14 16 16 13 13 13 15 16 20 20 19 12 12 9 7 5 6 6 8 9 12 11 10 8 9 10 11 14 17 14 13 14 15 15 16 16 17 19 20 20 19 18 17 17 15 14 16 15 15 16 15 16 15 15 17 17 19 18 19 20 19 19 19 18 18 18 18 20 21 20
21 20 18 18 15 15 13 11 7 5 18 17 20 19 24 20 18 19 18 18 17 18 18 16 17 19 14 8 5 5 6 5 9 12 12 12 13 14 14 13 13 13 14 15 16 16 14 14 15 16 17 19 20 19 19 17 17 15 15 15 14 15 15 16 17 16 14 15 16 16 15 17 18 18 19 18 18 18 18 17 17 16 16 18 19 21
22 21 17 13 14 8 10 10 10 15 15 17 17 17 16 14 13 13 12 11 19 18 21 21 15 11 9 8 8 6 11 18 14 10 11 13 19 21 21 19 17 16 17 18 19 19 17 15 16 18 19 20 19 17 16 15 14 13 13 14 14 16 16 17 17 15 15 16 14 14 14 15 15 16 18 18 17 17 16 16 15 14 15 15 17 18
24 21 20 17 16 15 11 10 10 9 8 11 14 18 19 17 17 18 15 16 19 21 23 22 16 15 16 9 10 11 22 15 8 7 7 10 18 25 17 19 12 12 12 15 19 21 19 18 19 19 19 16 16 15 14 12 13 12 12 14 14 16 14 15 14 14 15 13 16 13 13 15 17 17 17 18 16 15 16 14 14 14 14 13 15 16
22 22 22 19 16 15 12 9 8 6 7 15 15 17 19 19 21 20 15 11 18 19 22 19 16 13 14 8 8 13 15 8 7 6 8 14 14 12 10 11 10 11 12 14 16 18 20 20 19 18 17 16 14 13 11 13 14 13 13 14 13 13 14 13 12 12 13 11 11 10 14 14 15 16 16 16 15 14 13 13 13 13 13 13 15 15
18 16 18 17 17 16 15 12 8 9 7 13 14 15 16 18 18 14 4 2 21 20 20 17 15 14 15 10 8 7 13 10 8 7 7 7 8 8 11 12 13 13 13 15 18 20 19 18 17 15 15 14 12 11 11 13 12 16 13 11 10 12 13 11 11 10 9 9 9 11 13 13 14 14 15 15 15 14 13 13 12 11 11 12 13 12
17 17 16 13 13 14 17 13 12 12 15 18 17 15 16 21 16 8 3 5 19 19 13 14 14 14 13 10 7 8 8 8 9 9 9 9 10 10 11 12 13 14 15 17 19 21 16 16 15 13 11 10 8 10 11 13 14 13 12 10 10 11 9 9 7 8 8 8 10 12 12 12 12 12 12 13 12 12 11 11 11 10 10 10 10 10
10 12 11 12 12 10 10 9 8 8 14 19 19 14 18 15 8 6 14 15 14 15 15 16 15 13 13 10 8 8 7 8 10 9 9 9 9 11 11 13 14 16 19 19 19 17 13 12 11 9 8 8 8 10 11 13 13 11 9 10 10 9 5 5 5 5 9 9 10 10 10 9 9 9 9 9 10 9 9 10 10 9 8 7 7 7
4 5 4 3 8 9 11 9 7 3 11 19 17 14 18 12 10 14 14 18 17 17 17 16 15 15 11 9 8 8 8 8 8 9 9 10 10 11 12 14 18 17 16 15 13 12 11 9 8 7 7 6 7 8 11 12 11 10 10 8 7 4 3 3 3 5 5 6 6 5 4 4 4 4 4 4 5 6 6 5 6 6 7 6 6 6
14 5 3 4 3 1 3 5 6 8 11 18 15 8 12 16 15 15 18 15 14 13 12 12 11 11 10 8 9 8 9 9 9 9 10 10 9 11 14 16 16 15 14 12 10 9 12 7 7 6 6 6 7 8 9 10 9 9 8 5 2 2 3 3 3 2 2 2 1 1 1 1 1 1 0 1 2 2 2 1 2 3 2 2 2 3
11 10 10 3 5 2 -0 3 8 6 9 16 16 12 11 14 18 18 18 15 16 13 12 11 10 9 8 8 8 8 9 9 9 9 9 9 10 14 16 14 13 12 10 8 7 10 11 6 6 7 6 5 6 5 7 7 7 5 3 1 0 2 1 1 0 -0 -1 -1 -2 -2 -2 -2 -2 -2 -2 -1 -1 -2 -2 -1 0 -1 0 1 1 1
8 7 8 6 6 7 7 7 10 8 7 8 11 14 12 13 15 17 19 16 15 14 12 10 9 9 9 10 10 9 10 9 9 9 10 12 14 15 14 12 11 8 7 7 8 8 9 7 8 7 6 5 5 4 5 3 3 1 1 -1 -1 -0 -0 -1 -2 -3 -3 -3 -4 -3 -3 -3 -4 -4 -3 -3 -3 -4 -3 -3 -3 -3 -3 -2 -2 -1
11 9 12 7 6 6 5 5 5 6 6 7 6 9 12 13 14 12 11 11 10 10 9 9 9 9 9 12 11 10 10 10 11 12 14 13 13 12 10 8 6 5 5 7 4 9 8 7 6 5 5 4 3 2 1 1 0 0 -0 -0 -1 -1 -1 -2 -3 -3 -4 -4 -4 -4 -4 -4 -6 -6 -5 -4 -4 -5 -5 -5 -4 -4 -3 -4 -3 -2
8 9 7 7 7 6 5 6 6 7 7 7 7 8 7 8 8 8 8 7 6 7 9 10 13 14 14 14 12 11 11 12 13 12 12 12 11 8 6 5 4 4 4 4 4 7 6 6 4 3 2 1 -1 -1 -0 -0 -0 -1 -1 -1 -1 -1 -2 -3 -4 -5 -5 -5 -5 -6 -6 -6 -4 -5 -7 -6 -6 -7 -7 -7 -6 -6 -7 -6 -6 -5
9 8 8 8 6 6 7 7 7 7 8 7 8 8 8 9 8 7 8 9 8 10 11 12 12 12 12 11 12 12 13 13 13 12 9 7 6 6 5 3 3 2 2 4 4 5 3 2 2 1 -0 -2 -2 -2 -1 -2 -1 -1 -2 -2 -2 -2 -4 -4 -4 -4 -5 -5 -6 -6 -6 -6 -6 -7 -7 -7 -6 -7 -6 -7 -7 -7 -7 -4 -4 -5
8 9 8 9 9 9 7 7 7 6 7 6 7 7 6 4 4 4 6 9 10 11 12 13 12 11 11 11 10 11 12 11 8 5 8 4 3 4 2 1 1 2 2 1 2 2 1 1 -1 -2 -3 -3 -3 -3 -2 -3 -3 -2 -3 -2 -3 -3 -4 -5 -5 -5 -6 -6 -7 -7 -8 -8 -8 -7 -7 -8 -8 -7 -7 -2 7 3 -3 -4 5 10
9 9 8 9 9 8 8 9 9 8 7 7 9 9 9 8 8 10 9 10 11 12 11 12 11 10 9 10 6 8 9 5 4 3 4 2 1 -0 -2 -1 -1 -1 -1 -1 -0 -0 -1 -3 -3 -4 -4 -4 -3 -3 -3 -3 -4 -3 -3 -3 -3 -3 -4 -4 -6 -6 -7 -8 -9 -8 -8 -8 -8 -8 -8 -7 -7 -8 -8 -8 -7 6 9 10 9 10